Time,TemperatureF,DewpointF,PressureIn,WindDirection,WindDirectionDegrees,WindSpeedMPH,WindSpeedGustMPH,Humidity,HourlyPrecipIn,Conditions,Clouds,dailyrainin,SoftwareType,DateUTC
2013-02-07 00:02:00,35.0,32.0,30.06,East,98,0.0,-999.0,87,-99.99,,,-99.99,,2013-02-07 06:02:00,
2013-02-07 00:11:00,35.0,32.0,30.06,East,98,0.0,-999.0,87,-99.99,,,-99.99,,2013-02-07 06:11:00,
2013-02-07 00:22:00,35.0,32.0,30.06,East,96,1.0,-999.0,87,-99.99,,,-99.99,,2013-02-07 06:22:00,
2013-02-07 00:32:00,35.0,32.0,30.06,SE,128,1.0,-999.0,87,-99.99,,,-99.99,,2013-02-07 06:32:00,
2013-02-07 00:43:00,35.0,32.0,30.06,SE,128,1.0,-999.0,87,-99.99,,,-99.99,,2013-02-07 06:43:00,
2013-02-07 00:52:00,35.0,32.0,30.07,SSE,155,0.0,-999.0,87,-99.99,,,-99.99,,2013-02-07 06:52:00,
2013-02-07 01:01:00,35.0,31.0,30.09,SE,136,0.0,-999.0,86,-99.99,,,-99.99,,2013-02-07 07:01:00,
2013-02-07 01:11:00,35.0,31.0,30.09,SE,136,0.0,-999.0,86,-99.99,,,-99.99,,2013-02-07 07:11:00,
2013-02-07 01:22:00,35.0,32.0,30.09,SE,136,0.0,-999.0,87,-99.99,,,-99.99,,2013-02-07 07:22:00,
2013-02-07 01:32:00,35.0,32.0,30.08,SE,136,0.0,-999.0,88,-99.99,,,-99.99,,2013-02-07 07:32:00,
2013-02-07 01:42:00,35.0,32.0,30.08,SE,136,0.0,-999.0,88,-99.99,,,-99.99,,2013-02-07 07:42:00,
2013-02-07 01:52:00,34.0,31.0,30.07,ESE,107,1.0,-999.0,90,-99.99,,,-99.99,,2013-02-07 07:52:00,
2013-02-07 02:01:00,34.0,32.0,30.06,East,96,0.0,-999.0,91,-99.99,,,-99.99,,2013-02-07 08:01:00,
2013-02-07 02:11:00,34.0,32.0,30.06,East,96,0.0,-999.0,91,-99.99,,,-99.99,,2013-02-07 08:11:00,
2013-02-07 02:21:00,34.0,32.0,30.07,East,96,0.0,-999.0,92,-99.99,,,-99.99,,2013-02-07 08:21:00,
2013-02-07 02:32:00,34.0,32.0,30.07,East,96,0.0,-999.0,93,-99.99,,,-99.99,,2013-02-07 08:32:00,
2013-02-07 02:42:00,34.0,32.0,30.07,East,96,0.0,-999.0,93,-99.99,,,-99.99,,2013-02-07 08:42:00,
2013-02-07 02:52:00,34.0,32.0,30.06,East,97,0.0,-999.0,93,-99.99,,,-99.99,,2013-02-07 08:52:00,
2013-02-07 03:02:00,34.0,32.0,30.05,ESE,105,1.0,-999.0,94,-99.99,,,-99.99,,2013-02-07 09:02:00,
2013-02-07 03:11:00,34.0,32.0,30.05,ESE,105,1.0,-999.0,94,-99.99,,,-99.99,,2013-02-07 09:11:00,
2013-02-07 03:21:00,34.0,32.0,30.03,ESE,108,0.0,-999.0,94,-99.99,,,-99.99,,2013-02-07 09:21:00,
2013-02-07 03:32:00,34.0,33.0,30.03,East,99,1.0,-999.0,95,-99.99,,,-99.99,,2013-02-07 09:32:00,
2013-02-07 03:41:00,34.0,33.0,30.03,East,99,1.0,-999.0,95,-99.99,,,-99.99,,2013-02-07 09:41:00,
2013-02-07 03:52:00,34.0,33.0,30.02,East,99,0.0,-999.0,95,-99.99,,,-99.99,,2013-02-07 09:52:00,
2013-02-07 04:01:00,33.0,32.0,30.02,East,99,0.0,-999.0,95,-99.99,,,-99.99,,2013-02-07 10:01:00,
2013-02-07 04:11:00,33.0,32.0,30.02,East,99,0.0,-999.0,95,-99.99,,,-99.99,,2013-02-07 10:11:00,
2013-02-07 04:22:00,34.0,33.0,30.03,East,99,0.0,-999.0,95,-99.99,,,-99.99,,2013-02-07 10:22:00,
2013-02-07 04:32:00,34.0,33.0,30.03,East,98,0.0,-999.0,95,-99.99,,,-99.99,,2013-02-07 10:32:00,
2013-02-07 04:42:00,34.0,33.0,30.03,East,98,0.0,-999.0,95,-99.99,,,-99.99,,2013-02-07 10:42:00,
2013-02-07 04:51:00,34.0,33.0,30.03,ESE,111,1.0,-999.0,95,-99.99,,,-99.99,,2013-02-07 10:51:00,
2013-02-07 05:01:00,34.0,33.0,30.03,East,90,1.0,-999.0,95,-99.99,,,-99.99,,2013-02-07 11:01:00,
2013-02-07 05:11:00,34.0,33.0,30.03,East,90,1.0,-999.0,95,-99.99,,,-99.99,,2013-02-07 11:11:00,
2013-02-07 05:22:00,34.0,33.0,30.03,East,90,0.0,-999.0,95,-99.99,,,-99.99,,2013-02-07 11:22:00,
2013-02-07 05:32:00,33.0,32.0,30.02,East,90,0.0,-999.0,95,-99.99,,,-99.99,,2013-02-07 11:32:00,
2013-02-07 05:44:00,33.0,32.0,30.02,East,90,0.0,-999.0,95,-99.99,,,-99.99,,2013-02-07 11:44:00,
2013-02-07 05:52:00,33.0,32.0,30.02,East,88,3.0,-999.0,95,-99.99,,,-99.99,,2013-02-07 11:52:00,
2013-02-07 06:02:00,33.0,32.0,30.02,ENE,78,2.0,-999.0,95,-99.99,,,-99.99,,2013-02-07 12:02:00,
2013-02-07 06:11:00,33.0,32.0,30.02,ENE,78,2.0,-999.0,95,-99.99,,,-99.99,,2013-02-07 12:11:00,
2013-02-07 06:22:00,33.0,32.0,30.02,East,90,4.0,-999.0,95,-99.99,,,-99.99,,2013-02-07 12:22:00,
2013-02-07 06:32:00,33.0,32.0,30.01,East,92,2.0,-999.0,95,-99.99,,,-99.99,,2013-02-07 12:32:00,
2013-02-07 06:42:00,33.0,32.0,30.01,East,92,2.0,-999.0,95,-99.99,,,-99.99,,2013-02-07 12:42:00,
2013-02-07 06:52:00,33.0,32.0,30.01,East,88,0.0,-999.0,95,-99.99,,,-99.99,,2013-02-07 12:52:00,
2013-02-07 07:03:00,33.0,32.0,30.01,East,88,0.0,-999.0,96,-99.99,,,-99.99,,2013-02-07 13:03:00,
2013-02-07 07:12:00,33.0,32.0,30.01,East,88,0.0,-999.0,96,-99.99,,,-99.99,,2013-02-07 13:12:00,
2013-02-07 07:22:00,33.0,32.0,30.00,East,84,4.0,-999.0,96,-99.99,,,-99.99,,2013-02-07 13:22:00,
2013-02-07 07:32:00,33.0,32.0,30.01,East,84,1.0,-999.0,96,-99.99,,,-99.99,,2013-02-07 13:32:00,
2013-02-07 07:42:00,33.0,32.0,30.01,East,84,1.0,-999.0,96,-99.99,,,-99.99,,2013-02-07 13:42:00,
2013-02-07 07:52:00,33.0,32.0,30.00,East,90,1.0,-999.0,96,-99.99,,,-99.99,,2013-02-07 13:52:00,
2013-02-07 08:01:00,33.0,32.0,30.00,East,84,3.0,-999.0,96,-99.99,,,-99.99,,2013-02-07 14:01:00,
2013-02-07 08:11:00,33.0,32.0,30.00,East,84,3.0,-999.0,96,-99.99,,,-99.99,,2013-02-07 14:11:00,
2013-02-07 08:21:00,33.0,32.0,29.99,East,101,1.0,-999.0,96,-99.99,,,-99.99,,2013-02-07 14:21:00,
2013-02-07 08:32:00,33.0,32.0,29.99,East,91,1.0,-999.0,96,-99.99,,,-99.99,,2013-02-07 14:32:00,
2013-02-07 08:42:00,33.0,32.0,29.99,East,91,1.0,-999.0,96,-99.99,,,-99.99,,2013-02-07 14:42:00,
2013-02-07 08:52:00,33.0,32.0,29.99,East,90,0.0,-999.0,96,-99.99,,,-99.99,,2013-02-07 14:52:00,
2013-02-07 09:02:00,33.0,32.0,29.98,East,90,1.0,-999.0,96,-99.99,,,-99.99,,2013-02-07 15:02:00,
2013-02-07 09:11:00,33.0,32.0,29.98,East,90,1.0,-999.0,96,-99.99,,,-99.99,,2013-02-07 15:11:00,
2013-02-07 09:22:00,33.0,32.0,29.98,East,90,1.0,-999.0,97,-99.99,,,-99.99,,2013-02-07 15:22:00,
2013-02-07 09:32:00,33.0,32.0,29.98,East,91,0.0,-999.0,97,-99.99,,,-99.99,,2013-02-07 15:32:00,
2013-02-07 09:42:00,33.0,32.0,29.98,East,91,0.0,-999.0,97,-99.99,,,-99.99,,2013-02-07 15:42:00,
2013-02-07 09:52:00,33.0,32.0,29.98,East,91,0.0,-999.0,97,-99.99,,,-99.99,,2013-02-07 15:52:00,
2013-02-07 10:01:00,33.0,32.0,29.97,East,91,0.0,-999.0,97,-99.99,,,-99.99,,2013-02-07 16:01:00,
2013-02-07 10:11:00,33.0,32.0,29.97,East,91,0.0,-999.0,97,-99.99,,,-99.99,,2013-02-07 16:11:00,
2013-02-07 10:21:00,33.0,32.0,29.97,East,91,0.0,-999.0,97,-99.99,,,-99.99,,2013-02-07 16:21:00,
2013-02-07 10:32:00,33.0,32.0,29.97,East,91,1.0,-999.0,97,-99.99,,,-99.99,,2013-02-07 16:32:00,
2013-02-07 10:42:00,33.0,32.0,29.97,East,91,1.0,-999.0,97,-99.99,,,-99.99,,2013-02-07 16:42:00,
2013-02-07 10:52:00,34.0,33.0,29.97,East,91,0.0,-999.0,97,-99.99,,,-99.99,,2013-02-07 16:52:00,
2013-02-07 11:01:00,34.0,33.0,29.96,East,86,1.0,-999.0,97,-99.99,,,-99.99,,2013-02-07 17:01:00,
2013-02-07 11:11:00,34.0,33.0,29.96,East,86,1.0,-999.0,97,-99.99,,,-99.99,,2013-02-07 17:11:00,
2013-02-07 11:21:00,34.0,33.0,29.96,East,86,1.0,-999.0,97,-99.99,,,-99.99,,2013-02-07 17:21:00,
2013-02-07 11:32:00,34.0,33.0,29.96,East,86,0.0,-999.0,97,-99.99,,,-99.99,,2013-02-07 17:32:00,
2013-02-07 11:43:00,34.0,33.0,29.96,East,86,0.0,-999.0,97,-99.99,,,-99.99,,2013-02-07 17:43:00,
2013-02-07 11:52:00,34.0,33.0,29.96,East,86,0.0,-999.0,97,-99.99,,,-99.99,,2013-02-07 17:52:00,
2013-02-07 12:01:00,34.0,33.0,29.94,East,86,0.0,-999.0,97,-99.99,,,-99.99,,2013-02-07 18:01:00,
2013-02-07 12:11:00,34.0,33.0,29.94,East,86,0.0,-999.0,97,-99.99,,,-99.99,,2013-02-07 18:11:00,
2013-02-07 12:23:00,35.0,34.0,29.93,East,86,0.0,-999.0,98,-99.99,,,-99.99,,2013-02-07 18:23:00,
2013-02-07 12:32:00,35.0,34.0,29.92,East,86,0.0,-999.0,98,-99.99,,,-99.99,,2013-02-07 18:32:00,
2013-02-07 12:42:00,35.0,34.0,29.92,East,86,0.0,-999.0,98,-99.99,,,-99.99,,2013-02-07 18:42:00,
2013-02-07 12:52:00,35.0,34.0,29.92,East,86,0.0,-999.0,98,-99.99,,,-99.99,,2013-02-07 18:52:00,
2013-02-07 13:01:00,35.0,34.0,29.91,East,86,0.0,-999.0,98,-99.99,,,-99.99,,2013-02-07 19:01:00,
2013-02-07 13:11:00,35.0,34.0,29.91,East,86,0.0,-999.0,98,-99.99,,,-99.99,,2013-02-07 19:11:00,
2013-02-07 13:22:00,35.0,34.0,29.91,East,86,0.0,-999.0,98,-99.99,,,-99.99,,2013-02-07 19:22:00,
2013-02-07 13:32:00,35.0,34.0,29.90,East,86,0.0,-999.0,98,-99.99,,,-99.99,,2013-02-07 19:32:00,
2013-02-07 13:42:00,35.0,34.0,29.90,East,86,0.0,-999.0,98,-99.99,,,-99.99,,2013-02-07 19:42:00,
2013-02-07 13:52:00,35.0,34.0,29.90,East,86,0.0,-999.0,98,-99.99,,,-99.99,,2013-02-07 19:52:00,
2013-02-07 14:01:00,35.0,34.0,29.90,East,86,0.0,-999.0,98,-99.99,,,-99.99,,2013-02-07 20:01:00,
2013-02-07 14:11:00,35.0,34.0,29.90,East,86,0.0,-999.0,98,-99.99,,,-99.99,,2013-02-07 20:11:00,
2013-02-07 14:22:00,35.0,34.0,29.88,East,86,0.0,-999.0,98,-99.99,,,-99.99,,2013-02-07 20:22:00,
2013-02-07 14:32:00,35.0,34.0,29.88,East,86,0.0,-999.0,98,-99.99,,,-99.99,,2013-02-07 20:32:00,
2013-02-07 14:42:00,35.0,34.0,29.88,East,86,0.0,-999.0,98,-99.99,,,-99.99,,2013-02-07 20:42:00,
2013-02-07 14:52:00,35.0,34.0,29.87,East,86,0.0,-999.0,98,-99.99,,,-99.99,,2013-02-07 20:52:00,
2013-02-07 15:02:00,35.0,34.0,29.87,East,86,0.0,-999.0,98,-99.99,,,-99.99,,2013-02-07 21:02:00,
2013-02-07 15:11:00,35.0,34.0,29.87,East,86,0.0,-999.0,98,-99.99,,,-99.99,,2013-02-07 21:11:00,
2013-02-07 15:21:00,35.0,34.0,29.87,East,86,0.0,-999.0,98,-99.99,,,-99.99,,2013-02-07 21:21:00,
2013-02-07 15:32:00,34.0,34.0,29.87,East,86,0.0,-999.0,98,-99.99,,,-99.99,,2013-02-07 21:32:00,
2013-02-07 15:42:00,34.0,34.0,29.87,East,86,0.0,-999.0,98,-99.99,,,-99.99,,2013-02-07 21:42:00,
2013-02-07 15:52:00,34.0,34.0,29.87,East,86,0.0,-999.0,98,-99.99,,,-99.99,,2013-02-07 21:52:00,
2013-02-07 16:02:00,34.0,34.0,29.87,East,86,0.0,-999.0,98,-99.99,,,-99.99,,2013-02-07 22:02:00,
2013-02-07 16:11:00,34.0,34.0,29.87,East,86,0.0,-999.0,98,-99.99,,,-99.99,,2013-02-07 22:11:00,
2013-02-07 16:21:00,33.0,32.0,29.87,East,86,0.0,-999.0,98,-99.99,,,-99.99,,2013-02-07 22:21:00,
2013-02-07 16:32:00,33.0,32.0,29.87,East,86,0.0,-999.0,97,-99.99,,,-99.99,,2013-02-07 22:32:00,
2013-02-07 16:42:00,33.0,32.0,29.87,East,86,0.0,-999.0,97,-99.99,,,-99.99,,2013-02-07 22:42:00,
2013-02-07 16:51:00,33.0,32.0,29.87,East,86,0.0,-999.0,97,-99.99,,,-99.99,,2013-02-07 22:51:00,
2013-02-07 17:01:00,32.0,32.0,29.87,East,86,0.0,-999.0,98,-99.99,,,-99.99,,2013-02-07 23:01:00,
2013-02-07 17:11:00,32.0,32.0,29.87,East,86,0.0,-999.0,98,-99.99,,,-99.99,,2013-02-07 23:11:00,
2013-02-07 17:21:00,32.0,32.0,29.88,NW,323,0.0,-999.0,98,-99.99,,,-99.99,,2013-02-07 23:21:00,
2013-02-07 17:32:00,32.0,32.0,29.88,WNW,296,1.0,-999.0,98,-99.99,,,-99.99,,2013-02-07 23:32:00,
2013-02-07 17:41:00,32.0,32.0,29.88,WNW,296,1.0,-999.0,98,-99.99,,,-99.99,,2013-02-07 23:41:00,
2013-02-07 17:52:00,32.0,32.0,29.88,WNW,286,2.0,-999.0,98,-99.99,,,-99.99,,2013-02-07 23:52:00,
2013-02-07 18:01:00,32.0,32.0,29.88,WNW,286,1.0,-999.0,98,-99.99,,,-99.99,,2013-02-08 00:01:00,
2013-02-07 18:11:00,32.0,32.0,29.88,WNW,286,1.0,-999.0,98,-99.99,,,-99.99,,2013-02-08 00:11:00,
2013-02-07 18:21:00,32.0,32.0,29.90,West,278,3.0,-999.0,98,-99.99,,,-99.99,,2013-02-08 00:21:00,
2013-02-07 18:32:00,32.0,32.0,29.90,West,278,3.0,-999.0,98,-99.99,,,-99.99,,2013-02-08 00:32:00,
2013-02-07 18:42:00,32.0,32.0,29.90,West,278,3.0,-999.0,98,-99.99,,,-99.99,,2013-02-08 00:42:00,
2013-02-07 18:52:00,32.0,32.0,29.91,WNW,302,4.0,-999.0,98,-99.99,,,-99.99,,2013-02-08 00:52:00,
2013-02-07 19:01:00,32.0,32.0,29.91,WNW,292,5.0,-999.0,98,-99.99,,,-99.99,,2013-02-08 01:01:00,
2013-02-07 19:11:00,32.0,32.0,29.91,WNW,292,5.0,-999.0,98,-99.99,,,-99.99,,2013-02-08 01:11:00,
2013-02-07 19:21:00,32.0,32.0,29.92,WNW,282,4.0,-999.0,98,-99.99,,,-99.99,,2013-02-08 01:21:00,
2013-02-07 19:31:00,32.0,32.0,29.93,WNW,290,5.0,-999.0,98,-99.99,,,-99.99,,2013-02-08 01:31:00,
2013-02-07 19:41:00,32.0,32.0,29.93,WNW,290,5.0,-999.0,98,-99.99,,,-99.99,,2013-02-08 01:41:00,
2013-02-07 19:51:00,32.0,32.0,29.93,West,279,4.0,-999.0,98,-99.99,,,-99.99,,2013-02-08 01:51:00,
2013-02-07 20:01:00,32.0,32.0,29.94,WNW,295,6.0,-999.0,98,-99.99,,,-99.99,,2013-02-08 02:01:00,
2013-02-07 20:11:00,32.0,32.0,29.94,WNW,295,6.0,-999.0,98,-99.99,,,-99.99,,2013-02-08 02:11:00,
2013-02-07 20:21:00,32.0,32.0,29.95,West,279,7.0,-999.0,98,-99.99,,,-99.99,,2013-02-08 02:21:00,
2013-02-07 20:32:00,32.0,32.0,29.96,WNW,282,7.0,-999.0,98,-99.99,,,-99.99,,2013-02-08 02:32:00,
2013-02-07 20:42:00,32.0,32.0,29.96,WNW,282,7.0,-999.0,98,-99.99,,,-99.99,,2013-02-08 02:42:00,
2013-02-07 20:52:00,32.0,32.0,29.96,NW,311,6.0,-999.0,98,-99.99,,,-99.99,,2013-02-08 02:52:00,
2013-02-07 21:01:00,33.0,32.0,29.96,NW,315,8.0,-999.0,98,-99.99,,,-99.99,,2013-02-08 03:01:00,
2013-02-07 21:12:00,33.0,32.0,29.96,NW,315,8.0,-999.0,98,-99.99,,,-99.99,,2013-02-08 03:12:00,
2013-02-07 21:22:00,33.0,32.0,29.98,WNW,284,8.0,-999.0,98,-99.99,,,-99.99,,2013-02-08 03:22:00,
2013-02-07 21:32:00,33.0,32.0,29.98,NW,319,8.0,-999.0,98,-99.99,,,-99.99,,2013-02-08 03:32:00,
2013-02-07 21:41:00,33.0,32.0,29.98,NW,319,8.0,-999.0,98,-99.99,,,-99.99,,2013-02-08 03:41:00,
2013-02-07 21:52:00,33.0,32.0,29.98,NW,306,8.0,-999.0,98,-99.99,,,-99.99,,2013-02-08 03:52:00,
2013-02-07 22:01:00,33.0,32.0,29.98,NW,308,8.0,-999.0,97,-99.99,,,-99.99,,2013-02-08 04:01:00,
2013-02-07 22:11:00,33.0,32.0,29.98,NW,308,8.0,-999.0,97,-99.99,,,-99.99,,2013-02-08 04:11:00,
2013-02-07 22:21:00,33.0,32.0,29.98,NW,305,7.0,-999.0,97,-99.99,,,-99.99,,2013-02-08 04:21:00,
2013-02-07 22:32:00,32.0,31.0,29.99,NW,321,8.0,-999.0,97,-99.99,,,-99.99,,2013-02-08 04:32:00,
2013-02-07 22:41:00,32.0,31.0,29.99,NW,321,8.0,-999.0,97,-99.99,,,-99.99,,2013-02-08 04:41:00,
2013-02-07 22:51:00,31.0,30.0,30.00,NW,318,10.0,-999.0,95,-99.99,,,-99.99,,2013-02-08 04:51:00,
2013-02-07 23:02:00,31.0,29.0,30.01,NW,307,8.0,-999.0,94,-99.99,,,-99.99,,2013-02-08 05:02:00,
2013-02-07 23:11:00,31.0,29.0,30.01,NW,307,8.0,-999.0,94,-99.99,,,-99.99,,2013-02-08 05:11:00,
2013-02-07 23:22:00,31.0,29.0,30.01,NW,307,10.0,-999.0,94,-99.99,,,-99.99,,2013-02-08 05:22:00,
2013-02-07 23:32:00,31.0,29.0,30.02,NW,319,10.0,-999.0,93,-99.99,,,-99.99,,2013-02-08 05:32:00,
2013-02-07 23:42:00,31.0,29.0,30.02,NW,319,10.0,-999.0,93,-99.99,,,-99.99,,2013-02-08 05:42:00,
2013-02-07 23:52:00,31.0,29.0,30.02,NW,322,10.0,-999.0,92,-99.99,,,-99.99,,2013-02-08 05:52:00,